Springfield, MO

4:00 AM CDT on May 28, 2017 (GMT -0500)
Springfield-Branson Regional

Weather History for KSGF - October, 2012

Change the Weather History Date:

Thursday, October 4, 2012

  Actual Average Record
Temperature  
Mean Temperature 66 °F 62 °F  
Max Temperature 79 °F 73 °F 91 °F (1938)
Min Temperature 52 °F 50 °F 32 °F (1968)
Degree Days  
Heating Degree Days 0 5  
Month to date heating degree days 13 20  
Since 1 July heating degree days 54 75  
Cooling Degree Days 1 2  
Month to date cooling degree days 1 8  
Year to date cooling degree days 1744 1367  
Growing Degree Days 18 (Base 50)    
Moisture  
Dew Point 54 °F    
Average Humidity 66    
Maximum Humidity 86    
Minimum Humidity 45    
Precipitation  
Precipitation 0.00 in 0.12 in 1.88 in (1903)
Month to date precipitation 0.00 0.50  
Year to date precipitation 24.52 35.22  
Snow  
Snow 0.00 in - - ()
Month to date snowfall 0.0  
Since 1 July snowfall 0.0  
Since 1 September snowfall 0.0  
Snow Depth 0.00 in    
Sea Level Pressure  
Sea Level Pressure 30.11 in    
Wind  
Wind Speed 11 mph (SSW)    
Max Wind Speed 16 mph    
Max Gust Speed 21 mph    
Visibility 10 miles    
Events      
T = Trace of Precipitation, MM = Missing Value Source: NWS Daily Summary

Daily Weather History Graph

Daily Weather History Graph

Search for Another Location

Airport or City:

Trip Planner

Search our weather history database for the weather conditions in past years. The results will help you decide how hot, cold, wet, or windy it might be!

Date:

Astronomy

Oct. 04, 2012 Rise Set
Actual Time 7:12 AM CDT 6:51 PM CDT
Civil Twilight 6:46 AM CDT 7:17 PM CDT
Nautical Twilight 6:15 AM CDT 7:47 PM CDT
Astronomical Twilight 5:45 AM CDT 8:17 PM CDT
Moon 9:33 PM CDT (10/4) 11:23 AM CDT (10/4)
Length of Visible Light 12h 31m
Length of Day
11h 39m
Waning Gibbous, 82% of the Moon is Illuminated
Oct 4
Waning Gibbous
Oct 8
Last Quarter
Oct 15
New
Oct 21
First Quarter
Oct 29
Full

Hourly Weather History & Observations

Time (CDT) Temp. Dew Point Humidity Pressure Visibility Wind Dir Wind Speed Gust Speed Precip Events Conditions
12:52 AM 59.0 °F 52.0 °F 78% 30.03 in 10.0 mi SSE 10.4 mph - N/A   Clear
1:52 AM 59.0 °F 53.1 °F 81% 30.05 in 10.0 mi SSE 10.4 mph - N/A   Clear
2:52 AM 57.9 °F 53.1 °F 84% 30.06 in 10.0 mi SSE 12.7 mph - N/A   Clear
3:52 AM 57.9 °F 53.1 °F 84% 30.07 in 10.0 mi SSE 10.4 mph - N/A   Clear
4:52 AM 57.9 °F 53.1 °F 84% 30.09 in 10.0 mi SSE 9.2 mph - N/A   Clear
5:52 AM 57.9 °F 52.0 °F 81% 30.12 in 10.0 mi SSE 8.1 mph - N/A   Clear
6:52 AM 57.0 °F 52.0 °F 83% 30.13 in 10.0 mi SSE 10.4 mph - N/A   Clear
7:52 AM 57.0 °F 52.0 °F 83% 30.14 in 10.0 mi SSE 12.7 mph - N/A   Clear
8:52 AM 61.0 °F 54.0 °F 78% 30.15 in 10.0 mi South 11.5 mph - N/A   Clear
9:52 AM 66.0 °F 55.0 °F 68% 30.15 in 10.0 mi South 13.8 mph - N/A   Clear
10:52 AM 70.0 °F 55.0 °F 59% 30.15 in 10.0 mi SSW 9.2 mph 18.4 mph N/A   Clear
11:52 AM 73.9 °F 57.0 °F 55% 30.14 in 10.0 mi SSW 12.7 mph - N/A   Clear
12:52 PM 75.9 °F 55.9 °F 50% 30.13 in 10.0 mi SSW 9.2 mph - N/A   Clear
1:52 PM 78.1 °F 55.0 °F 45% 30.11 in 10.0 mi West 12.7 mph - N/A   Mostly Cloudy
2:52 PM 78.1 °F 55.9 °F 46% 30.10 in 10.0 mi West 9.2 mph - N/A   Scattered Clouds
3:52 PM 77.0 °F 57.0 °F 50% 30.09 in 10.0 mi NW 5.8 mph - N/A   Partly Cloudy
4:44 PM 73.4 °F 57.2 °F 57% 30.11 in 10.0 mi NNW 12.7 mph - N/A   Partly Cloudy
4:52 PM 73.0 °F 57.9 °F 59% 30.09 in 10.0 mi NNW 13.8 mph - N/A   Scattered Clouds
5:52 PM 71.1 °F 57.9 °F 63% 30.11 in 10.0 mi North 9.2 mph - N/A   Mostly Cloudy
6:52 PM 66.0 °F 55.0 °F 68% 30.13 in 10.0 mi North 16.1 mph - N/A   Mostly Cloudy
7:52 PM 64.4 °F 53.6 °F 68% 30.15 in 10.0 mi North 10.4 mph - N/A   Overcast
8:52 PM 63.0 °F 52.0 °F 67% 30.15 in 10.0 mi NNE 9.2 mph - N/A   Overcast
9:52 PM 62.1 °F 50.0 °F 65% 30.15 in 10.0 mi NNW 5.8 mph - N/A   Overcast
10:52 PM 60.1 °F 48.9 °F 67% 30.14 in 10.0 mi North 10.4 mph - N/A   Overcast
11:52 PM 55.0 °F 46.0 °F 72% 30.15 in 10.0 mi North 11.5 mph - N/A   Scattered Clouds